Volver al catálogo

COSMOS 1867 COOLANT

ActivoLEO
NORAD 39644·DEBRIS·🇷🇺 Russia

Lanzado Jul 10, 1987 desde Baikonur Cosmodrome

Loading…

Próximos Pases (próximas 24 horas)

TLE

ActualizadoSource: Space-Track

Época: Sep 13, 2026, 21:01 UTC

1 39644U 87060M   26256.87603603  .00000190  00000-0  10198-3 0  9993
2 39644  65.0079 111.2970 0019408 276.4503  83.4374 14.34885931650539

Sigue COSMOS 1867 COOLANT en tiempo real con AllMySat

Download on the App Store